Hourly Data Report for July 31, 2004

SHERBROOKE A
QUEBEC

45°26'00.000" N
71°41'00.000" W
241.40 m
7028124
71610
YSC

Download Data

Hourly Data (July 2004)
Hourly Data Report for July 31, 2004
TIME
LST
Temp Definition
°C
Dew Point Definition
°C
Rel Hum Definition
%
Precip. Amount Definition
mm

Wind Dir Definition
10's deg

Wind Spd Definition
km/h
Visibility Definition
km
Stn Press Definition
kPa
Hmdx Definition


Wind Chill Definition


Weather Definition


00:00 20.2 17.6 85   12 4 11.3 98.75 26    
01:00 20.2 18.8 92   23 4 2.9 98.80 27   Moderate Rain
02:00 20.5 19.6 95   17 4 3.1 98.71 28    
03:00 20.2 19.5 96   14 4 2.6 98.66 27    
04:00 19.9 19.1 95     0 1.6 98.66      
05:00 19.7 19.0 96     0 2.7 98.67      
06:00 22.0 20.4 91   23 6 6.4 98.70 30    
07:00 22.5 20.6 89   20 9 12.9 98.68 31   Cloudy
08:00 22.8 20.9 89   17 6 16.1 98.64 31   Cloudy
09:00 24.2 21.2 83   19 11 16.1 98.57 33   Cloudy
10:00 22.9 20.9 89   20 13 11.3 98.56 31   Moderate Rain
11:00 24.1 21.3 84   19 17 19.3 98.46 33   Cloudy
12:00 25.2 21.3 79   19 19 19.3 98.41 34   Cloudy
13:00 26.8 20.7 69   21 19 19.3 98.35 35   Cloudy
14:00 25.3 20.4 74   21 17 19.3 98.34 33   Rain Showers
15:00 24.9 20.4 76   20 13 19.3 98.29 33   Cloudy
16:00 25.4 20.6 75   20 13 19.3 98.25 33   Cloudy
17:00 22.3 21.3 94   23 6 3.9 98.33 31   Rain
18:00 22.3 21.1 93     0 9.7 98.37 31    
19:00 22.3 20.9 92   17 7 12.9 98.34 31    
20:00 22.2 20.8 92   21 4 11.3 98.34 30    
21:00 21.9 20.8 93   18 7 9.7 98.43 30   Rain
22:00 21.7 20.6 93   23 9 3.1 98.46 30   Moderate Rain
23:00 21.2 20.2 94     0 11.3 98.45 29    

Notes on Data Quality.

Legend

  • E = Estimated
  • M = Missing
  • NA = Not Available*
  • [empty] = Indicates an unobserved value
Date modified: